Location: Aldenham
(51.6667°N, 0.3500°W)
Time: 11:39:28
(UTC+00:00)

Altair - Visible Passes

Search period start: 16 February 2026 00:00
Search period end: 26 February 2026 00:00
Orbit: 1502 x 1682 km, 47.2° (Epoch: 15 February)

Date Brightness Start Highest point End Pass type
(mag) Time Alt. Az. Time Alt. Az. Time Alt. Az.
16 Feb 9.0 03:53:16 14° S 03:58:54 24° SE 04:05:53 10° E visible
16 Feb 8.1 05:53:07 10° SW 06:01:58 53° SSE 06:11:08 10° E visible
17 Feb 9.0 03:29:51 17° SSE 03:33:50 22° SE 03:40:29 10° E visible
17 Feb 8.1 05:28:02 10° SW 05:36:49 51° SSE 05:45:53 10° E visible
18 Feb 9.0 03:06:18 18° SSE 03:08:46 20° SE 03:15:02 10° E visible
18 Feb 8.1 05:04:20 15° SW 05:11:40 49° SSE 05:20:37 10° E visible
19 Feb 9.0 02:42:41 18° SE 02:43:44 19° SE 02:49:33 10° E visible
19 Feb 8.1 04:40:43 22° SSW 04:46:31 47° SSE 04:55:22 10° E visible
20 Feb 9.1 02:18:59 17° SE 02:18:59 17° SE 02:24:01 10° E visible
20 Feb 8.1 04:17:00 28° SSW 04:21:23 44° SSE 04:30:06 10° E visible
20 Feb 7.8 06:16:05 10° WSW 06:25:13 67° S 06:34:42 10° E visible
21 Feb 9.3 01:55:13 15° ESE 01:55:13 15° ESE 01:58:23 10° E visible
21 Feb 8.1 03:53:15 33° S 03:56:15 42° SSE 04:04:50 10° E visible
21 Feb 7.7 05:51:15 11° WSW 06:00:02 67° S 06:09:27 10° E visible
22 Feb 9.4 01:31:25 12° ESE 01:31:25 12° ESE 01:32:40 10° E visible
22 Feb 8.1 03:29:25 37° S 03:31:08 40° SSE 03:39:34 10° E visible
22 Feb 7.7 05:27:26 17° WSW 05:34:50 66° S 05:44:12 10° E visible
23 Feb 8.1 03:05:33 37° SSE 03:06:01 38° SE 03:14:18 10° E visible
23 Feb 7.7 05:03:34 24° WSW 05:09:39 64° SSE 05:18:57 10° E visible
24 Feb 8.3 02:41:39 35° SE 02:41:39 35° SE 02:49:01 10° E visible
24 Feb 7.6 04:39:40 31° SW 04:44:27 63° SSE 04:53:43 10° E visible
25 Feb 8.5 02:17:43 31° ESE 02:17:43 31° ESE 02:23:44 10° E visible
25 Feb 7.6 04:15:43 39° SW 04:19:17 61° SSE 04:28:29 10° E visible
25 Feb 7.7 06:14:19 10° W 06:23:26 66° S 06:32:52 10° ESE visible
